www.pogodaiklimat.ru

Погода и климат >> Архив погоды >> Россия >> Приморский край >> Сосуново


ПОГОДА в Сосуново

  • Прогноз погоды в Сосуново
  • Монитор погоды в Сосуново
  • Климат города

АРХИВ ПОГОДЫ в Сосуново

Время (UTC), дата Ветер
(напр.,м/с)
 
Видим.   Явления Облачность Т
(С)
Тd
(С)
f
(%)
Тe
(С)
Тes
(С)
Комфортность P
(гПа)
Po
(гПа)
Тmin
(С)
Tmax
(С)
R
(мм)
R24
(мм)
S
(см)
09 14.10 З 3 50 км {ливн. осадки} ясно +6.0 -2.5 54 +3 +3 1018.2 1017.8 +9.9 0.0
12 14.10 З 5
{12}
50 км {ливн. осадки} ясно +5.3 -3.7 52 +1 +1 1019.3 1018.9
15 14.10 З 4 50 км ясно +2.0 -3.9 65 -3 -3 1020.1 1019.7
18 14.10 З 7-11
{12}
50 км ясно +4.9 -6.8 42 0 0 1019.8 1019.4
21 14.10 З 4
{12}
50 км ясно +3.7 -6.7 47 -0 -0 1020.8 1020.4 +0.4
00 15.10 СЗ 3
{10}
20 км ясно +7.3 -7.6 34 +5 +8 1022.8 1022.4
03 15.10 З 5-11
{12}
20 км 6/6 1000 м
[Sc diur, vesp]
+7.7 -12.5 22 +5 +6 1022.3 1021.9
06 15.10 ЮЗ 6
{14}
20 км 8/8 600 м
[Sc diur, vesp]
+8.2 -8.7 29 +5 +5 1022.7 1022.3
09 15.10 З 2 20 км 3/3 1000 м
[Cu hum]
+4.5 -8.2 39 +3 +3 1024.5 1024.1 +9.7
12 15.10 ЮЗ 3 20 км ясно -1.7 -6.6 69 -6 -6 1025.7 1025.3
15 15.10 З 2 20 км ясно -3.2 -6.1 80 -7 -7 1026.4 1026.0
18 15.10 ЮЗ 4 20 км ясно -4.0 -6.0 86 -10 -10 1026.3 1025.9
21 15.10 ЮЗ 4 20 км ясно -4.8 -6.7 87 -11 -11 1026.5 1026.1 -5.1
00 16.10 ЮЗ 2 20 км ясно +2.9 -5.3 55 0 +3 1026.2 1025.8
03 16.10 З 6-12
{12}
20 км 4/4 600 м
[Cu hum]
+9.6 -11.4 21 +7 +8 1024.0 1023.6
06 16.10 З 2
{12}
20 км 5/5 600 м
[Cu hum]
+9.7 -12.7 19 +9 +10 1023.3 1022.9
09 16.10 З 2 20 км ясно +2.4 -9.8 40 0 0 1024.2 1023.8 +11.4
12 16.10 ЮЗ 5 20 км ясно -1.4 -7.3 64 -7 -7 1024.4 1024.0
15 16.10 З 5 20 км ясно +3.3 -8.6 41 -1 -1 1023.3 1022.9
18 16.10 ЮЗ 5 20 км ясно -2.0 -6.9 69 -8 -8 1022.2 1021.8
21 16.10 ЮЗ 5 20 км ясно -2.7 -6.5 75 -9 -9 1020.6 1020.2 -2.8
00 17.10 ЮЗ 4 20 км 8/8 600 м
[Cu hum]
+2.1 -5.1 59 -2 -2 1019.1 1018.7
03 17.10 В 1 20 км 10/6 600 м
[Cb cap As op]
+6.6 -1.9 55 +6 +7 1017.3 1016.9
06 17.10 СЗ 4 50 км 5/5 600 м
[Cb cap]
+7.8 -10.3 26 +5 +6 1017.3 1016.9
09 17.10 СЗ 2
{10}
50 км ясно +3.7 -7.8 43 +2 +2 1019.4 1019.0 +8.2
12 17.10 СЗ 3 50 км ясно +1.0 -7.6 53 -3 -3 1022.4 1022.0
15 17.10 З 6 50 км ясно +1.2 -7.6 52 -4 -4 1023.8 1023.4
18 17.10 СЗ 4
{11}
50 км ясно +0.6 -12.3 37 -4 -4 1025.1 1024.7
21 17.10 З 7-10
{12}
50 км ясно -0.2 -14.7 33 -6 -6 1025.9 1025.5 -1.0
00 18.10 З 5
{11}
50 км ясно +4.0 -14.7 24 0 +2 1026.4 1026.0
03 18.10 ЮВ 2 50 км ясно +6.2 -11.0 28 +5 +11 1026.2 1025.8
06 18.10 Ю 4 50 км ясно +5.0 -10.2 32 +2 +3 1025.8 1025.4
09 18.10 З 2 50 км ясно +0.7 -8.7 49 -2 -2 1026.5 1026.1 +6.4
12 18.10 З 3 50 км ясно -2.7 -8.0 67 -8 -8 1026.9 1026.5
15 18.10 ЮЗ 5 50 км ясно -3.5 -8.9 66 -10 -10 1026.3 1025.8
18 18.10 ЮЗ 6 50 км ясно -4.1 -9.2 68 -11 -11 1026.0 1025.6
21 18.10 ЮЗ 5 50 км ясно -4.8 -9.7 69 -12 -12 1025.7 1025.3 -5.1
00 19.10 ЮЗ 4 20 км ясно +1.1 -10.3 42 -3 -1 1025.1 1024.7
03 19.10 ЮВ 2 20 км 3/0
[Ci fib]
+5.4 -2.7 56 +3 +9 1022.9 1022.5
06 19.10 ЮЗ 2 20 км 6/0
[Cs]
+6.3 -3.4 50 +5 +6 1021.3 1020.9
09 19.10 СЗ 3 20 км 6/0
[Cs]
+1.3 -3.3 71 -3 -3 1021.3 1020.9 +6.5
12 19.10 ЮЗ 3 20 км ясно -1.0 -4.1 79 -6 -6 1021.8 1021.4
15 19.10 ЮЗ 4 20 км ясно -2.0 -4.4 84 -8 -8 1022.1 1021.7
18 19.10 ЮЗ 4 20 км ясно -2.3 -4.6 84 -8 -8 1022.7 1022.3
21 19.10 ЮЗ 4 20 км ясно -2.8 -4.7 87 -9 -9 1023.3 1022.9 -2.9
00 20.10 ЮЗ 3 20 км 3/0
[Cc]
+3.1 -2.4 67 -1 +2 1023.8 1023.4 -3.0
03 20.10 СВ 4 20 км 10/8 600 м
[Sc Cs]
+5.9 +0.2 67 +2 +3 1023.1 1022.7
06 20.10 СВ 2 20 км 10/10 600 м
[Sc]
+5.6 +1.5 75 +3 +3 1022.6 1022.2
09 20.10 З 1 10 км слабый дождь 10/3 300 м
[Frnb As op]
+4.8 +2.3 84 +4 +4 1022.6 1022.2 +6.7 0.4
12 20.10 З 1 10 км слабый дождь 10/10 200 м
[Frnb Ns]
+4.5 +3.2 91 +3 +3 1022.3 1021.9
15 20.10 штиль 0 20 км {дождь} 10/10 300 м
[St]
+4.9 +3.7 92 +4 +4 1021.2 1020.8
18 20.10 З 1 20 км {дождь} 10/10 600 м
[Sc]
+5.5 +4.3 92 +4 +4 1019.7 1019.3
21 20.10 З 1 20 км 10/10 600 м
[Sc]
+5.1 +4.0 93 +4 +4 1018.7 1018.3 +4.3 3
00 21.10 ЮЗ 5 20 км слабый дождь 10/10 300 м
[Frnb Ns]
+7.1 +5.6 90 +3 +3 1017.9 1017.5
03 21.10 Ю 7-11
{12}
20 км 3/3 600 м
[Cu hum]
+9.6 +6.5 81 +6 +7 1015.9 1015.5
06 21.10 ЮЗ 9-15
{15}
20 км 8/4 600 м
[Sc Ci sp]
+8.0 +6.1 88 +3 +3 1013.6 1013.3

 

Местоположение метеостанции Сосуново (Приморский край, Россия): широта 46.55 долгота 138.30 высота над уровнем моря 4 м.

В архиве по умолчанию представлена погода в Сосуново за последнюю неделю. Архивные данные за месяц целиком и за предыдущие месяцы, начиная с января 2011 года, Вы можете получить, выбрав интересующий диапазон дат из раскрывающегося списка и нажав кнопку "Ввод!".

Внимание! Время в таблицах - всемирное. Для получения местного времени необходимо прибавить поправку, которая в Сосуново равна 10 ч.

Смотрите также архив погоды в соседних городах и на ближайших метеорологических станциях:

Погода в Охотничем (Приморский край, Россия) (107 км)
Погода в Агзу (Приморский край, Россия) (117 км)
Погода в Сукпае (Хабаровский край, Россия) (142 км)
Погода в Малой Кеме (Приморский край, Россия) (158 км)
Погода в Гвасюгах (Хабаровский край, Россия) (208 км)
Погода в Тернее (Приморский край, Россия) (217 км)
Погода на Остров Монерон (Сахалинская область, Россия) (225 км)
Погода в Красном Яре (Приморский край, Россия) (230 км)
Погода в Глубинном (Приморский край, Россия) (237 км)
Погода в Бичевой (Хабаровский край, Россия) (245 км)

Пояснения к столбцам:

Ветер - указаны скорость ветра в м/с - средняя за 10 мин, порывы в срок и между сроками (в фигурных скобках) и направление, откуда дует ветер: С - северный, СВ - северо-восточный, В - восточный, ЮВ - юго-восточный, Ю - южный, ЮЗ - юго-западный, З - западный, СЗ - северо-западный.
Видимость - горизонтальная дальность видимости в метрах или километрах. При видимости от 1 до 10 км при отсутствии осадков обычно наблюдается дымка, при ухудшении видимости до 1 км и менее - туман. В сухую погоду видимость может ухудшаться дымом, пылью или мглою.
Явления - указаны атмосферные явления, наблюдавшиеся в срок или в последний час перед сроком; фигурными скобками обозначены явления, наблюдавшиеся между сроками (за 1-3 часа до срока); квадратными скобками обозначены град или гололедные отложения с указанием их диаметра в мм.
Облачность - указаны через наклонную черту общая и нижняя облачность в баллах и высота нижней границы облаков в метрах; квадратными скобками обозначены формы облаков: Ci - перистые, Cs - перисто-слоистые, Cc - перисто-кучевые, Ac - высококучевые, As - высокослоистые, Sc - слоисто-кучевые, Ns - слоисто-дождевые, Cu - кучевые, Cb - кучево-дождевые. Подробнее классификацию облаков см. в Атласе облаков (PDF).
T - Температура воздуха - температура, измеренная на высоте 2 м над землей.
Td - Температура точки росы - температура, при понижении до которой содержащийся в воздухе водяной пар достигнет насыщения.
f - Относительная влажность воздуха - влажноcть воздуха, измеренная на высоте 2 м над землей.
Te - Эффективная температура - температура, которую ощущает одетый по сезону человек в тени. Характеристика душности погоды. При расчете учитывается влияние влажности воздуха и скорости ветра на теплоощущения человека.
Tes - Эффективная температура на солнце - температура, которую ощущает человек, с поправкой на солнечный нагрев. Характеристика знойности погоды. Зависит от высоты солнца над горизонтом, облачности и скорости ветра. Ночью, в пасмурную погоду, а также при ветре 12 м/с и более поправка равна нулю.
P - Атмосферное давление - приведенное к уровню моря атмосферное давление.
Po - Атмосферное давление - измеренное на уровне метеостанции атмосферное давление.
Tmin - Минимальная температура - минимум температуры воздуха на высоте 2 м над землей.
Tmax - Максимальная температура - максимум температуры воздуха на высоте 2 м над землей.
R - Количество осадков - Количество выпавших осадков за период времени, мм. При наведении курсора мыши на число - период времени, за который выпало указанное количество осадков.
R24 - Количество осадков - Количество выпавших осадков за 24 часа, мм.
S - Снежный покров - Высота снежного покрова, см. При наведении курсора мыши на число - состояние снежного покрова и степень покрытия местности в баллах.